Location: Oak Harbor
(48.2930°N, 122.6420°W)
Time: 11:10:39
(UTC-08:00)

Transit 2A - All Passes

Search period start: 14 January 2026 00:00
Search period end: 24 January 2026 00:00
Orbit: 589 x 956 km, 66.7° (Epoch: 14 January)

Date Brightness Start Highest point End Pass type
(mag) Time Alt. Az. Time Alt. Az. Time Alt. Az.
14 Jan - 01:10:29 10° NW 01:13:52 15° N 01:17:15 10° NNE night (unlit)
14 Jan - 02:55:28 10° NNW 02:59:37 18° NNE 03:03:43 10° ENE visible
14 Jan - 04:38:28 10° NNW 04:44:29 42° NE 04:50:11 10° ESE visible
14 Jan - 06:21:44 10° NW 06:27:45 49° WSW 06:33:23 10° S visible
14 Jan - 19:23:26 10° SE 19:26:11 14° E 19:29:01 10° ENE night (unlit)
14 Jan - 21:02:17 10° SSW 21:08:08 71° ESE 21:14:24 10° NE night (unlit)
14 Jan - 22:46:25 10° W 22:51:49 32° NW 22:57:28 10° NNE night (unlit)
15 Jan - 00:33:20 10° NW 00:36:59 16° NNW 00:40:40 10° NNE night (unlit)
15 Jan - 02:19:02 10° NNW 02:22:46 16° NNE 02:26:29 10° NE visible
15 Jan - 04:02:12 10° NNW 04:07:54 33° NE 04:13:22 10° ESE visible
15 Jan - 05:45:17 10° NW 05:51:33 68° WSW 05:57:23 10° SSE visible
15 Jan - 07:30:51 10° WNW 07:33:27 13° W 07:35:59 10° SW daylight
15 Jan - 20:26:16 10° S 20:31:55 51° ESE 20:37:58 10° NE night (unlit)
15 Jan - 22:09:34 10° WSW 22:15:14 41° NW 22:21:12 10° NNE night (unlit)
15 Jan - 23:56:06 10° WNW 00:00:07 17° NNW 00:04:13 10° NNE night (unlit)
16 Jan - 01:42:28 10° NNW 01:45:54 15° N 01:49:18 10° NE visible
16 Jan - 03:25:56 10° NNW 03:31:15 27° NNE 03:36:24 10° E visible
16 Jan - 05:08:54 10° NW 05:15:15 88° NE 05:21:11 10° SE visible
16 Jan - 06:53:20 10° WNW 06:57:31 19° WSW 07:01:31 10° SSW visible
16 Jan - 19:50:28 10° S 19:55:46 36° ESE 20:01:25 10° NE visible
16 Jan - 21:32:52 10° SW 21:38:43 53° NW 21:44:55 10° NNE night (unlit)
16 Jan - 23:18:53 10° WNW 23:23:19 20° NNW 23:27:51 10° NNE night (unlit)
17 Jan - 01:05:45 10° NNW 01:08:59 14° N 01:12:14 10° NNE night (unlit)
17 Jan - 02:49:39 10° NNW 02:54:33 23° NNE 02:59:19 10° ENE visible
17 Jan - 04:32:35 10° NNW 04:38:53 67° NE 04:44:48 10° SE visible
17 Jan - 06:16:25 10° NW 06:21:32 27° WSW 06:26:21 10° SSW visible
17 Jan - 19:14:58 10° SSE 19:19:43 26° ESE 19:24:43 10° NE visible
17 Jan - 20:56:20 10° SW 21:02:17 70° NW 21:08:38 10° NNE visible
17 Jan - 22:41:42 10° W 22:46:34 23° NNW 22:51:33 10° NNE night (unlit)
18 Jan - 00:28:49 10° NW 00:32:05 14° N 00:35:21 10° NNE night (unlit)
18 Jan - 02:13:20 10° NNW 02:17:47 19° NNE 02:22:08 10° ENE visible
18 Jan - 03:56:17 10° NNW 04:02:26 50° NE 04:08:14 10° ESE visible
18 Jan - 05:39:44 10° NW 05:45:27 39° WSW 05:50:48 10° S visible
18 Jan - 18:39:53 10° SE 18:43:43 18° ESE 18:47:43 10° ENE visible
18 Jan - 20:19:58 10° SSW 20:25:56 87° SE 20:32:17 10° NE visible
18 Jan - 22:04:39 10° W 22:09:51 28° NW 22:15:16 10° NNE visible
18 Jan - 23:51:44 10° NW 23:55:11 15° N 23:58:40 10° NNE night (unlit)
19 Jan - 01:36:57 10° NNW 01:40:58 17° NNE 01:44:54 10° ENE night (unlit)
19 Jan - 03:20:01 10° NNW 03:25:54 39° NE 03:31:31 10° ESE visible
19 Jan - 05:03:13 10° NW 05:09:18 54° WSW 05:14:57 10° SSE visible
19 Jan - 18:05:39 10° ESE 18:07:49 12° E 18:10:00 10° ENE visible
19 Jan - 19:43:48 10° SSW 19:49:39 65° ESE 19:55:54 10° NE visible
19 Jan - 21:27:42 10° WSW 21:33:14 35° NW 21:39:00 10° NNE visible
19 Jan - 23:14:32 10° NW 23:18:19 16° NNW 23:22:07 10° NNE night (unlit)
20 Jan - 01:00:29 10° NNW 01:04:06 15° NNE 01:07:41 10° NE night (unlit)
20 Jan - 02:43:44 10° NNW 02:49:18 31° NE 02:54:38 10° E visible
20 Jan - 04:26:47 10° NW 04:33:04 75° WSW 04:38:53 10° SSE visible
20 Jan - 06:11:56 10° WNW 06:15:03 14° W 06:18:05 10° SW visible
20 Jan - 19:07:50 10° S 19:13:27 46° ESE 19:19:25 10° NE visible
20 Jan - 20:50:54 10° WSW 20:56:40 44° NW 21:02:43 10° NNE visible
20 Jan - 22:37:18 10° WNW 22:41:28 18° NNW 22:45:42 10° NNE visible
21 Jan - 00:23:52 10° NNW 00:27:13 14° N 00:30:32 10° NE night (unlit)
21 Jan - 02:07:28 10° NNW 02:12:38 26° NNE 02:17:38 10° E night (unlit)
21 Jan - 03:50:25 10° NW 03:56:45 81° NE 04:02:37 10° SE visible
21 Jan - 05:34:39 10° WNW 05:39:06 21° WSW 05:43:21 10° SSW visible
21 Jan - 18:32:07 10° S 18:37:20 33° ESE 18:42:50 10° NE visible
21 Jan - 20:14:14 10° SW 20:20:11 58° NW 20:26:27 10° NNE visible
21 Jan - 22:00:04 10° WNW 22:04:41 21° NNW 22:09:21 10° NNE visible
21 Jan - 23:47:04 10° NNW 23:50:18 14° N 23:53:31 10° NNE night (unlit)
22 Jan - 01:31:10 10° NNW 01:35:54 21° NNE 01:40:31 10° ENE night (unlit)
22 Jan - 03:14:06 10° NNW 03:20:21 61° NE 03:26:11 10° SE visible
22 Jan - 04:57:48 10° NW 05:03:05 30° WSW 05:08:03 10° SSW visible
22 Jan - 17:56:43 10° SSE 18:01:17 23° ESE 18:06:04 10° NE visible
22 Jan - 19:37:45 10° SW 19:43:46 77° NW 19:50:08 10° NNE visible
22 Jan - 21:22:56 10° W 21:27:56 25° NNW 21:33:03 10° NNE visible
22 Jan - 23:10:05 10° NW 23:13:23 14° N 23:16:42 10° NNE night (unlit)
23 Jan - 00:54:50 10° NNW 00:59:07 18° NNE 01:03:19 10° ENE night (unlit)
23 Jan - 02:37:48 10° NNW 02:43:52 46° NE 02:49:34 10° ESE night (unlit)
23 Jan - 04:21:11 10° NW 04:26:59 42° WSW 04:32:24 10° S visible
23 Jan - 17:21:47 10° SE 17:25:18 16° ESE 17:28:56 10° ENE visible
23 Jan - 19:01:26 10° SSW 19:07:25 80° ESE 19:13:46 10° NE visible
23 Jan - 20:45:53 10° W 20:51:15 30° NW 20:56:47 10° NNE visible
23 Jan - 22:32:57 10° NW 22:36:29 15° N 22:40:03 10° NNE visible
